Voltar ao catálogo

JAC

AtivoCiênciaSSO
NORAD 56748·PAYLOAD·🇰🇷 South Korea
Este nome de satélite ainda não foi confirmado por fontes oficiais.

Lançado May 25, 2023 de Naro Space Center

Loading…

Próximas Passagens (próximas 24 horas)

TLE

AtualizadoSource: Space-Track

Época: Sep 14, 2026, 15:36 UTC

1 56748U 23072F   26257.65002255  .00007362  00000-0  23606-3 0  9999
2 56748  97.5050  96.8496 0007039  64.3282 295.8686 15.32624855183472

Acompanhe JAC em tempo real com AllMySat

Download on the App Store